Tracking 19827 objects as of 21-Aug-2019
HD Live streaming from Space Station
objects crossing your sky now

FREGAT R/B

Track FREGAT R/B now!


NORAD ID: 37345
Int'l Code: 2011-001B
Perigee: 34,445.5 km
Apogee: 35,753.8 km
Inclination: 5.6 °
Period: 1,400.8 minutes
Semi major axis: 41470 km
RCS: 8.569 m2 (large)
Launch date: January 20, 2011
Source: Commonwealth of Independent States (former USSR) (CIS)
Launch site: TYURATAM MISSILE AND SPACE COMPLEX (TTMTR)

Note: This is a ROCKET BODY
aabbcc
Your satellite tracking list
Your tracking list is empty




NASA's NSSDC Master Catalog

Two Line Element Set (TLE):
1 37345U 11001B   19232.86927941 -.00000133 +00000-0 +00000-0 0  9996
2 37345 005.5677 058.8714 0157737 010.5840 343.2453 01.02799533034779
Source of the keplerian elements: AFSPC